This demonstration page uses our WeatherBlox Daily Observations layout. Learn more.

Left ArrowRight Arrow

Hourly Observations for December 26, 2016

Temp ( °F °C ) Dew Point ( °F °C ) Humidity (%) Winds ( mph kmh ) Pressure ( in mb ) Visibility ( mi km ) Precip ( " mm )
12:14 am 00:14 Cloudy 46 8 46 8 100 100 SE 9 15 30.21 1023 1 1 N/A
12:34 am 00:34 Cloudy 46 8 46 8 100 100 SSE 6 9 30.21 1023 1 1 N/A
12:54 am 00:54 Cloudy 46 8 46 8 100 100 SE 8 13 30.21 1023 1 1 N/A
1:14 am 01:14 Cloudy 46 8 46 8 100 100 SSE 10 17 30.21 1023 1 1 N/A
1:34 am 01:34 Cloudy 48 9 48 9 100 100 SSE 13 20 30.18 1022 2 2 N/A
1:54 am 01:54 Cloudy 50 10 48 9 94 94 SSE 12 19 30.18 1022 4 6 N/A
2:14 am 02:14 Cloudy 50 10 50 10 100 100 SSE 12 19 30.18 1022 5 8 N/A
2:34 am 02:34 Cloudy 50 10 50 10 100 100 SSE 12 19 30.18 1022 5 8 N/A
2:54 am 02:54 Cloudy 52 11 52 11 100 100 SSE 12 19 30.18 1022 7 11 N/A
3:14 am 03:14 Cloudy 52 11 52 11 100 100 S 13 20 30.18 1022 7 11 N/A
3:35 am 03:35 Cloudy 54 12 52 11 94 94 S 13 20 30.18 1022 10 16 N/A
3:54 am 03:54 Cloudy 54 12 52 11 94 94 S 14 22 30.15 1021 10 16 N/A
4:14 am 04:14 Cloudy 55 13 54 12 94 94 S 14 22 30.12 1020 10 16 N/A
4:34 am 04:34 Partly Cloudy 55 13 54 12 94 94 S 16 26 30.09 1019 10 16 N/A
4:54 am 04:54 Partly Cloudy 57 14 54 12 88 88 S 17 28 30.09 1019 10 16 N/A
5:14 am 05:14 Clear 57 14 54 12 88 88 S 20 31 30.09 1019 10 16 N/A
5:34 am 05:34 Clear 57 14 54 12 88 88 S 20 31 30.09 1019 10 16 N/A
5:52 am 05:52 Clear 57 14 54 12 88 88 S 17 28 30.09 1019 10 16 N/A
6:14 am 06:14 Clear 57 14 54 12 88 88 S 17 28 30.09 1019 10 16 N/A
6:34 am 06:34 Clear 57 14 54 12 88 88 S 20 31 30.09 1019 10 16 N/A
6:54 am 06:54 Partly Cloudy 57 14 54 12 88 88 S 16 26 30.09 1019 10 16 N/A
7:14 am 07:14 Mostly Cloudy 57 14 54 12 88 88 S 16 26 30.09 1019 10 16 N/A
7:34 am 07:34 Cloudy 57 14 54 12 88 88 S 15 24 30.09 1019 10 16 N/A
7:54 am 07:54 Cloudy 57 14 55 13 94 94 S 16 26 30.09 1019 10 16 N/A
8:14 am 08:14 Cloudy 59 15 55 13 88 88 S 16 26 30.09 1019 10 16 N/A
8:34 am 08:34 Cloudy 59 15 55 13 88 88 S 16 26 30.09 1019 10 16 N/A
8:54 am 08:54 Cloudy 59 15 55 13 88 88 S 13 20 30.09 1019 10 16 N/A
9:14 am 09:14 Cloudy 59 15 57 14 94 94 S 18 30 30.09 1019 7 11 N/A
9:34 am 09:34 Cloudy 59 15 57 14 94 94 S 15 24 30.09 1019 5 8 N/A
9:54 am 09:54 Cloudy 59 15 57 14 94 94 S 17 28 30.09 1019 7 11 N/A
10:14 am 10:14 Cloudy 59 15 57 14 94 94 S 15 24 30.09 1019 10 16 N/A
10:34 am 10:34 Cloudy 59 15 57 14 94 94 S 14 22 30.06 1018 10 16 N/A
10:54 am 10:54 Cloudy 59 15 57 14 94 94 S 15 24 30.06 1018 7 11 N/A
11:14 am 11:14 Cloudy 59 15 57 14 94 94 S 15 24 30.06 1018 10 16 N/A
11:34 am 11:34 Cloudy 59 15 57 14 94 94 S 15 24 30.06 1018 10 16 N/A
11:54 am 11:54 Cloudy 59 15 57 14 94 94 S 16 26 30.03 1017 10 16 N/A
12:14 pm 12:14 Cloudy 61 16 57 14 88 88 S 15 24 30.03 1017 10 16 N/A
12:34 pm 12:34 Cloudy 61 16 57 14 88 88 SSW 10 17 30.03 1017 10 16 N/A
12:54 pm 12:54 Cloudy 61 16 59 15 94 94 SSW 18 30 30.03 1017 10 16 N/A
1:14 pm 13:14 Cloudy 61 16 59 15 94 94 SSW 18 30 30.00 1016 10 16 N/A
1:34 pm 13:34 Cloudy 63 17 59 15 88 88 SSW 22 35 30.00 1016 10 16 N/A
1:54 pm 13:54 Cloudy 63 17 59 15 88 88 SSW 17 28 30.00 1016 10 16 N/A
2:14 pm 14:14 Cloudy 63 17 59 15 88 88 SSW 20 31 30.00 1016 10 16 N/A
2:34 pm 14:34 Mostly Cloudy 63 17 59 15 88 88 SSW 17 28 29.97 1015 10 16 N/A
2:54 pm 14:54 Mostly Cloudy 63 17 59 15 88 88 SSW 18 30 29.97 1015 10 16 N/A
3:14 pm 15:14 Cloudy 63 17 59 15 88 88 SSW 16 26 29.97 1015 10 16 N/A
3:34 pm 15:34 Cloudy 63 17 59 15 88 88 SSW 20 31 29.97 1015 10 16 N/A
3:54 pm 15:54 Cloudy 63 17 59 15 88 88 SSW 17 28 29.97 1015 10 16 N/A
4:14 pm 16:14 Cloudy 63 17 59 15 88 88 SSW 21 33 29.97 1015 7 11 N/A
4:34 pm 16:34 Cloudy 61 16 59 15 94 94 W 13 20 30.00 1016 4 6 N/A
4:54 pm 16:54 Cloudy 57 14 55 13 94 94 W 23 37 30.00 1016 10 16 N/A
5:14 pm 17:14 Cloudy 55 13 54 12 94 94 W 21 33 30.00 1016 10 16 N/A
5:34 pm 17:34 Cloudy 54 12 50 10 88 88 W 18 30 30.03 1017 10 16 N/A
5:54 pm 17:54 Cloudy 54 12 46 8 77 77 WSW 16 26 30.00 1016 10 16 N/A
6:14 pm 18:14 Cloudy 54 12 46 8 77 77 W 14 22 30.03 1017 10 16 N/A
6:34 pm 18:34 Cloudy 54 12 46 8 77 77 W 14 22 30.03 1017 10 16 N/A
6:54 pm 18:54 Cloudy 52 11 45 7 77 77 WSW 10 17 30.06 1018 10 16 N/A
7:14 pm 19:14 Cloudy 52 11 45 7 77 77 WSW 12 19 30.06 1018 10 16 N/A
7:34 pm 19:34 Cloudy 52 11 45 7 77 77 SW 10 17 30.06 1018 10 16 N/A
7:54 pm 19:54 Cloudy 52 11 45 7 77 77 WSW 12 19 30.06 1018 10 16 N/A
8:14 pm 20:14 Cloudy 52 11 45 7 77 77 SW 12 19 30.06 1018 10 16 N/A
8:34 pm 20:34 Cloudy 52 11 43 6 72 72 WSW 13 20 30.06 1018 10 16 N/A
8:54 pm 20:54 Cloudy 50 10 43 6 76 76 W 15 24 30.06 1018 10 16 N/A
9:14 pm 21:14 Mostly Cloudy 50 10 43 6 76 76 W 14 22 30.06 1018 10 16 N/A
9:34 pm 21:34 Partly Cloudy 50 10 43 6 76 76 W 13 20 30.06 1018 10 16 N/A
9:54 pm 21:54 Partly Cloudy 48 9 43 6 82 82 W 15 24 30.06 1018 10 16 N/A
10:14 pm 22:14 Mostly Cloudy 48 9 41 5 76 76 W 16 26 30.09 1019 10 16 N/A
10:34 pm 22:34 Partly Cloudy 46 8 39 4 76 76 W 15 24 30.09 1019 10 16 N/A
10:54 pm 22:54 Partly Cloudy 46 8 36 2 66 66 W 16 26 30.09 1019 10 16 N/A
11:14 pm 23:14 Partly Cloudy 45 7 32 undefined 61 61 W 14 22 30.12 1020 10 16 N/A
11:34 pm 23:34 Partly Cloudy 45 7 32 undefined 61 61 W 15 24 30.12 1020 10 16 N/A
11:54 pm 23:54 Mostly Cloudy 43 6 32 undefined 66 66 WNW 16 26 30.12 1020 10 16 N/A

Powered by AerisWeather